FW2000 Weather Reports


Display with metric or nautical units.
time (UTC)temp
F
wind
direction
speed
MPH
gust
MPH
rain 1hr
in
rain 24hr
in
rain mn
in
humidity
%
barometer
mb
20260508224557 77 281 3.0 9.0 0.00 0.00 0.00 42 1015.7
20260508224054 77 294 2.0 7.0 0.00 0.00 0.00 43 1015.7
20260508223556 77 243 2.0 9.0 0.00 0.00 0.00 43 1015.7
20260508223054 78 236 3.0 14.0 0.00 0.00 0.00 38 1015.8
20260508222552 78 281 5.0 10.0 0.00 0.00 0.00 37 1015.8
20260508222052 78 232 3.0 11.0 0.00 0.00 0.00 45 1015.8
20260508221552 78 287 6.0 11.0 0.00 0.00 0.00 41 1015.8
20260508221052 77 306 4.0 10.0 0.00 0.00 0.00 40 1015.9
20260508220551 77 289 4.0 10.0 0.00 0.00 0.00 43 1015.9
20260508220054 77 214 3.0 13.0 0.00 0.00 0.00 45 1016.1
20260508215549 77 281 4.0 13.0 0.00 0.00 0.00 41 1016.1
20260508215049 77 304 5.0 13.0 0.00 0.00 0.00 45 1016.2
20260508214550 77 298 4.0 10.0 0.00 0.00 0.00 42 1016.2
20260508214047 77 284 5.0 11.0 0.00 0.00 0.00 41 1016.3
20260508213546 77 289 4.0 11.0 0.00 0.00 0.00 41 1016.4
20260508213046 77 300 3.0 10.0 0.00 0.00 0.00 38 1016.4
20260508212546 77 271 5.0 12.0 0.00 0.00 0.00 37 1016.5
20260508212046 78 276 4.0 14.0 0.00 0.00 0.00 40 1016.5
20260508211546 78 284 7.0 14.0 0.00 0.00 0.00 36 1016.5
20260508211045 78 288 4.0 10.0 0.00 0.00 0.00 36 1016.5
20260508210545 78 286 3.0 9.0 0.00 0.00 0.00 39 1016.5
20260508205544 78 284 4.0 10.0 0.00 0.00 0.00 40 1016.5
20260508205045 78 293 3.0 10.0 0.00 0.00 0.00 42 1016.5
20260508204543 78 304 3.0 9.0 0.00 0.00 0.00 42 1016.5
20260508204043 78 261 4.0 10.0 0.00 0.00 0.00 40 1016.5
20260508203543 78 302 3.0 8.0 0.00 0.00 0.00 46 1016.5
20260508203046 78 277 3.0 11.0 0.00 0.00 0.00 43 1016.6
20260508202544 78 258 3.0 11.0 0.00 0.00 0.00 43 1016.6
20260508202043 78 300 4.0 11.0 0.00 0.00 0.00 44 1016.6
20260508201542 77 278 2.0 9.0 0.00 0.00 0.00 48 1016.6
20260508201042 77 254 3.0 9.0 0.00 0.00 0.00 50 1016.5
20260508200543 77 275 3.0 12.0 0.00 0.00 0.00 47 1016.6
20260508200047 77 302 4.0 12.0 0.00 0.00 0.00 47 1016.6
20260508195541 77 273 5.0 12.0 0.00 0.00 0.00 49 1016.6
20260508195041 77 300 2.0 7.0 0.00 0.00 0.00 51 1016.7
20260508194546 76 274 3.0 9.0 0.00 0.00 0.00 49 1016.7
20260508194039 76 285 4.0 9.0 0.00 0.00 0.00 48 1016.8
20260508193538 77 293 3.0 12.0 0.00 0.00 0.00 48 1016.8
20260508193042 77 267 4.0 10.0 0.00 0.00 0.00 47 1016.8
20260508192537 78 296 3.0 10.0 0.00 0.00 0.00 46 1016.9
20260508192037 78 267 4.0 10.0 0.00 0.00 0.00 46 1016.9
20260508191537 78 280 3.0 9.0 0.00 0.00 0.00 49 1016.9
20260508191037 78 250 3.0 9.0 0.00 0.00 0.00 44 1016.9
20260508190534 78 286 3.0 8.0 0.00 0.00 0.00 45 1017.0
20260508190047 79 319 4.0 8.0 0.00 0.00 0.00 44 1017.0
20260508185533 79 262 2.0 9.0 0.00 0.00 0.00 45 1017.1
20260508185031 79 281 4.0 9.0 0.00 0.00 0.00 45 1017.2
20260508184552 79 323 1.0 5.0 0.00 0.00 0.00 46 1017.2
20260508184028 79 319 1.0 5.0 0.00 0.00 0.00 49 1017.3
20260508183526 78 281 1.0 3.0 0.00 0.00 0.00 44 1017.4
20260508183026 78 11 0.0 4.0 0.00 0.00 0.00 46 1017.5
20260508182524 77 258 1.0 4.0 0.00 0.00 0.00 42 1017.5
20260508182024 78 238 2.0 4.0 0.00 0.00 0.00 43 1017.6
20260508181539 78 283 0.0 5.0 0.00 0.00 0.00 42 1017.5
20260508181022 78 321 0.0 5.0 0.00 0.00 0.00 42 1017.5
20260508180521 78 295 1.0 5.0 0.00 0.00 0.00 40 1017.6
20260508180020 78 290 3.0 5.0 0.00 0.00 0.00 40 1017.6
20260508175519 78 291 1.0 8.0 0.00 0.00 0.00 41 1017.6
20260508175018 78 292 2.0 5.0 0.00 0.00 0.00 46 1017.6
20260508174517 77 58 2.0 4.0 0.00 0.00 0.00 44 1017.5
20260508174014 77 55 2.0 5.0 0.00 0.00 0.00 39 1017.5
20260508173513 77 36 2.0 5.0 0.00 0.00 0.00 42 1017.5
20260508173012 77 37 1.0 4.0 0.00 0.00 0.00 42 1017.5
20260508172515 76 38 1.0 5.0 0.00 0.00 0.00 40 1017.6
20260508172008 75 32 2.0 5.0 0.00 0.00 0.00 44 1017.6
20260508171508 75 85 2.0 5.0 0.00 0.00 0.00 45 1017.6
20260508171005 75 50 2.0 5.0 0.00 0.00 0.00 45 1017.6
20260508170505 74 43 2.0 5.0 0.00 0.00 0.00 48 1017.7
20260508170004 74 69 2.0 5.0 0.00 0.00 0.00 47 1017.7
20260508165503 74 46 2.0 4.0 0.00 0.00 0.00 48 1017.6
20260508165002 74 54 0.0 4.0 0.00 0.00 0.00 50 1017.7
20260508164501 73 48 1.0 6.0 0.00 0.00 0.00 46 1017.7
20260508164001 73 75 2.0 4.0 0.00 0.00 0.00 50 1017.6
20260508163603 73 71 2.0 6.0 0.00 0.00 0.00 48 1017.6
20260508163100 72 111 2.0 6.0 0.00 0.00 0.00 48 1017.6
20260508162556 72 103 1.0 6.0 0.00 0.00 0.00 48 1017.6
20260508162055 72 94 2.0 5.0 0.00 0.00 0.00 50 1017.5
20260508161554 71 91 1.0 5.0 0.00 0.00 0.00 50 1017.7
20260508161052 71 105 1.0 7.0 0.00 0.00 0.00 51 1017.5
20260508160552 70 107 2.0 7.0 0.00 0.00 0.00 51 1017.5
20260508160049 70 101 2.0 8.0 0.00 0.00 0.00 53 1017.5
20260508155548 70 101 2.0 9.0 0.00 0.00 0.00 53 1017.6
20260508155047 69 103 2.0 9.0 0.00 0.00 0.00 54 1017.5
20260508154545 69 117 3.0 8.0 0.00 0.00 0.00 50 1017.6
20260508154043 68 121 2.0 6.0 0.00 0.00 0.00 54 1017.5
20260508153541 68 94 2.0 7.0 0.00 0.00 0.00 53 1017.5
20260508153040 67 104 2.0 8.0 0.00 0.00 0.00 51 1017.6
20260508152539 67 126 3.0 8.0 0.00 0.00 0.00 51 1017.6
20260508152037 66 84 2.0 8.0 0.00 0.00 0.00 52 1017.6
20260508151536 66 90 3.0 10.0 0.00 0.00 0.00 54 1017.5
20260508151035 66 105 4.0 10.0 0.00 0.00 0.00 53 1017.4
20260508150532 65 91 3.0 9.0 0.00 0.00 0.00 53 1017.3
20260508150035 65 130 5.0 9.0 0.00 0.00 0.00 54 1017.5
20260508145530 65 115 4.0 10.0 0.00 0.00 0.00 54 1017.4
20260508145031 64 90 4.0 9.0 0.00 0.00 0.00 55 1017.5
20260508144544 64 106 4.0 10.0 0.00 0.00 0.00 54 1017.5
20260508144026 64 148 3.0 10.0 0.00 0.00 0.00 56 1017.4
20260508143524 63 98 3.0 9.0 0.00 0.00 0.00 57 1017.4
20260508143023 63 79 2.0 9.0 0.00 0.00 0.00 59 1017.4
20260508142521 63 107 2.0 8.0 0.00 0.00 0.00 59 1017.4
20260508142020 62 90 3.0 7.0 0.00 0.00 0.00 60 1017.4
20260508141518 62 92 3.0 8.0 0.00 0.00 0.00 59 1017.4
20260508141018 61 101 3.0 6.0 0.00 0.00 0.00 60 1017.3
20260508140516 61 109 3.0 6.0 0.00 0.00 0.00 61 1017.2
20260508140015 61 152 1.0 4.0 0.00 0.00 0.00 63 1017.3
20260508135514 61 101 1.0 7.0 0.00 0.00 0.00 60 1017.3
20260508135012 60 109 1.0 4.0 0.00 0.00 0.00 62 1017.2
20260508134510 60 95 0.0 5.0 0.00 0.00 0.00 62 1017.1
20260508134009 60 95 1.0 5.0 0.00 0.00 0.00 62 1017.1
20260508133508 59 70 2.0 4.0 0.00 0.00 0.00 63 1017.0
20260508133006 59 98 0.0 4.0 0.00 0.00 0.00 64 1017.0
20260508132504 59 85 2.0 6.0 0.00 0.00 0.00 64 1016.9
20260508132004 58 88 2.0 6.0 0.00 0.00 0.00 65 1017.0
20260508131504 58 89 3.0 7.0 0.00 0.00 0.00 65 1017.0
20260508131003 58 96 3.0 7.0 0.00 0.00 0.00 66 1016.9
20260508130502 58 115 2.0 4.0 0.00 0.00 0.00 67 1017.0
20260508130001 58 113 1.0 6.0 0.00 0.00 0.00 67 1016.9
20260508125600 59 121 2.0 8.0 0.00 0.00 0.00 67 1016.9
20260508125102 59 113 2.0 8.0 0.00 0.00 0.00 66 1016.8
20260508124601 59 100 2.0 7.0 0.00 0.00 0.00 66 1016.8
20260508124059 59 119 2.0 7.0 0.00 0.00 0.00 67 1016.8
20260508123558 59 104 2.0 7.0 0.00 0.00 0.00 66 1016.9
20260508123110 59 107 3.0 7.0 0.00 0.00 0.00 67 1016.8
20260508122557 59 85 3.0 6.0 0.00 0.00 0.00 67 1016.8
20260508122057 59 92 2.0 5.0 0.00 0.00 0.00 67 1016.7
20260508121605 59 92 1.0 4.0 0.00 0.00 0.00 67 1016.7
20260508121057 59 109 2.0 4.0 0.00 0.00 0.00 67 1016.7
20260508120557 59 106 1.0 7.0 0.00 0.00 0.00 67 1016.8
20260508120057 59 108 2.0 7.0 0.00 0.00 0.00 67 1016.7
20260508115557 59 107 4.0 8.0 0.00 0.00 0.00 68 1016.8
20260508115056 59 69 4.0 8.0 0.00 0.00 0.00 68 1016.8
20260508114556 59 105 3.0 9.0 0.00 0.00 0.00 68 1016.7
20260508114056 59 74 4.0 9.0 0.00 0.00 0.00 68 1016.8
20260508113555 59 79 4.0 7.0 0.00 0.00 0.00 69 1016.7
20260508113107 59 74 4.0 9.0 0.00 0.00 0.00 69 1016.7
20260508112554 59 65 4.0 9.0 0.00 0.00 0.00 69 1016.8
20260508112054 59 84 4.0 8.0 0.00 0.00 0.00 69 1016.8
20260508111605 59 111 2.0 7.0 0.00 0.00 0.00 69 1016.8
20260508111053 59 87 2.0 6.0 0.00 0.00 0.00 70 1016.8
20260508110553 59 93 3.0 5.0 0.00 0.00 0.00 70 1016.8
20260508110058 59 103 1.0 5.0 0.00 0.00 0.00 71 1016.7
20260508105552 59 80 1.0 8.0 0.00 0.00 0.00 71 1016.8
20260508105052 59 90 2.0 8.0 0.00 0.00 0.00 70 1016.7
20260508104550 59 113 1.0 6.0 0.00 0.00 0.00 70 1016.8
20260508104050 60 92 0.0 4.0 0.00 0.00 0.00 69 1016.7
20260508103549 60 103 1.0 7.0 0.00 0.00 0.00 69 1016.8
20260508103057 60 85 2.0 8.0 0.00 0.00 0.00 69 1016.7
20260508102548 60 89 3.0 9.0 0.00 0.00 0.00 69 1016.7
20260508102048 60 73 4.0 7.0 0.00 0.00 0.00 70 1016.7
20260508101548 60 104 3.0 9.0 0.00 0.00 0.00 70 1016.8
20260508101047 60 106 3.0 9.0 0.00 0.00 0.00 69 1016.8
20260508100546 60 81 2.0 8.0 0.00 0.00 0.00 69 1016.8
20260508100046 61 80 3.0 8.0 0.00 0.00 0.00 68 1016.9
20260508095546 61 85 2.0 9.0 0.00 0.00 0.00 69 1016.9
20260508095046 61 93 5.0 9.0 0.00 0.00 0.00 69 1016.8
20260508094545 60 90 4.0 8.0 0.00 0.00 0.00 70 1016.8
20260508094046 60 90 2.0 4.0 0.00 0.00 0.00 69 1016.8
20260508093548 60 86 1.0 7.0 0.00 0.00 0.00 69 1016.8
20260508093045 60 122 2.0 8.0 0.00 0.00 0.00 69 1016.8
20260508092546 60 75 5.0 8.0 0.00 0.00 0.00 70 1016.8
20260508092044 60 103 2.0 4.0 0.00 0.00 0.00 71 1016.8
20260508091552 60 133 1.0 4.0 0.00 0.00 0.00 71 1017.0
20260508091044 60 146 2.0 4.0 0.00 0.00 0.00 70 1016.9
20260508090545 60 144 1.0 4.0 0.00 0.00 0.00 70 1016.9
20260508090059 60 141 1.0 4.0 0.00 0.00 0.00 71 1016.9
20260508085542 60 130 1.0 6.0 0.00 0.00 0.00 71 1016.9
20260508085040 60 119 1.0 6.0 0.00 0.00 0.00 70 1016.9
20260508084540 61 103 2.0 4.0 0.00 0.00 0.00 70 1016.9
20260508084040 61 117 2.0 6.0 0.00 0.00 0.00 69 1016.9
20260508083540 61 117 3.0 6.0 0.00 0.00 0.00 66 1016.9
20260508083041 61 92 2.0 4.0 0.00 0.00 0.00 66 1016.9
20260508082539 61 111 2.0 8.0 0.00 0.00 0.00 65 1017.0
20260508082039 61 86 3.0 8.0 0.00 0.00 0.00 65 1017.0
20260508081538 61 115 3.0 6.0 0.00 0.00 0.00 66 1017.1
20260508081040 61 94 2.0 7.0 0.00 0.00 0.00 66 1017.2
20260508080536 61 86 3.0 7.0 0.00 0.00 0.00 66 1017.2
20260508080042 61 101 2.0 6.0 0.00 0.00 0.00 67 1017.2
20260508075535 61 85 3.0 6.0 0.00 0.00 0.00 66 1017.2
20260508075035 61 84 3.0 7.0 0.00 0.00 0.00 67 1017.2
20260508074541 61 67 3.0 8.0 0.00 0.00 0.00 67 1017.2
20260508074036 61 88 4.0 8.0 0.00 0.00 0.00 67 1017.1
20260508073538 61 80 3.0 7.0 0.00 0.00 0.00 67 1017.3
20260508073034 61 126 3.0 7.0 0.00 0.00 0.00 67 1017.3
20260508072535 61 78 4.0 7.0 0.00 0.00 0.00 67 1017.2
20260508072035 62 83 3.0 6.0 0.00 0.00 0.00 68 1017.3
20260508071545 62 95 3.0 4.0 0.00 0.00 0.00 68 1017.2
20260508071033 62 91 3.0 6.0 0.00 0.00 0.00 68 1017.3
20260508070529 62 81 3.0 6.0 0.00 0.00 0.00 68 1017.2
20260508070028 62 98 4.0 5.0 0.00 0.00 0.00 69 1017.0
20260508065527 62 90 3.0 7.0 0.00 0.00 0.00 70 1017.1
20260508065027 62 86 3.0 7.0 0.00 0.00 0.00 71 1017.1
20260508064529 62 90 3.0 6.0 0.00 0.00 0.00 72 1017.1
20260508064027 62 81 4.0 6.0 0.00 0.00 0.00 72 1017.0
20260508063527 62 95 2.0 6.0 0.00 0.00 0.00 74 1017.0
20260508063027 63 90 3.0 6.0 0.00 0.00 0.00 74 1017.0
20260508062526 63 83 3.0 5.0 0.00 0.00 0.00 74 1017.0
20260508062026 63 83 3.0 6.0 0.00 0.00 0.00 74 1017.1
20260508061526 63 88 2.0 6.0 0.00 0.00 0.00 77 1017.2
20260508061026 63 88 2.0 6.0 0.00 0.00 0.00 77 1017.1
20260508060528 63 89 2.0 4.0 0.00 0.00 0.00 77 1017.1
20260508060025 64 98 2.0 4.0 0.00 0.00 0.00 77 1017.2
20260508055525 64 86 2.0 4.0 0.00 0.00 0.00 77 1017.3
20260508055025 64 86 2.0 4.0 0.00 0.00 0.00 76 1017.2
20260508054525 64 90 2.0 4.0 0.00 0.00 0.00 76 1017.3
20260508054025 64 90 2.0 4.0 0.00 0.00 0.00 76 1017.3
20260508053527 64 90 2.0 4.0 0.00 0.00 0.00 75 1017.3
20260508053043 64 90 3.0 4.0 0.00 0.00 0.00 74 1017.3
20260508052525 64 114 3.0 4.0 0.00 0.00 0.00 73 1017.4
20260508052024 64 133 2.0 4.0 0.00 0.00 0.00 73 1017.3
20260508051524 65 134 2.0 4.0 0.00 0.00 0.00 74 1017.3
20260508051024 64 146 2.0 3.0 0.00 0.00 0.00 74 1017.3
20260508050524 65 166 2.0 4.0 0.00 0.00 0.00 74 1017.4
20260508050023 65 229 0.0 2.0 0.00 0.00 0.00 73 1017.4
20260508045528 65 232 0.0 1.0 0.00 0.00 0.00 73 1017.4
20260508045024 65 232 0.0 2.0 0.00 0.00 0.00 73 1017.4
20260508044524 65 232 0.0 2.0 0.00 0.00 0.00 73 1017.4
20260508044027 65 239 1.0 2.0 0.00 0.00 0.00 72 1017.4
20260508043524 66 240 0.0 0.0 0.00 0.00 0.00 72 1017.4
20260508043023 66 240 0.0 1.0 0.00 0.00 0.00 71 1017.3
20260508042524 66 240 0.0 1.0 0.00 0.00 0.00 71 1017.3
20260508042022 66 240 0.0 1.0 0.00 0.00 0.00 70 1017.2
20260508041541 66 240 0.0 2.0 0.00 0.00 0.00 70 1017.1
20260508041023 66 240 0.0 3.0 0.00 0.00 0.00 70 1017.0
20260508040522 66 240 1.0 4.0 0.00 0.00 0.00 70 1017.1
20260508040026 66 240 1.0 4.0 0.00 0.00 0.00 70 1017.0
20260508035521 66 242 1.0 3.0 0.00 0.00 0.00 70 1017.0
20260508035025 67 241 1.0 3.0 0.00 0.00 0.00 70 1016.9
20260508034525 67 240 0.0 3.0 0.00 0.00 0.00 70 1016.9
20260508034021 67 242 0.0 2.0 0.00 0.00 0.00 70 1016.9
20260508033520 67 242 1.0 3.0 0.00 0.00 0.00 70 1016.8
20260508033026 67 242 1.0 3.0 0.00 0.00 0.00 69 1016.8
20260508032521 68 244 1.0 3.0 0.00 0.00 0.00 69 1016.8
20260508032020 68 244 1.0 4.0 0.00 0.00 0.00 70 1016.7
20260508031521 68 244 1.0 4.0 0.00 0.00 0.00 70 1016.7
20260508031020 68 243 1.0 3.0 0.00 0.00 0.00 69 1016.7
20260508030523 69 249 2.0 4.0 0.00 0.00 0.00 69 1016.6
20260508030025 69 250 1.0 4.0 0.00 0.00 0.00 69 1016.6
20260508025519 69 244 1.0 4.0 0.00 0.00 0.00 69 1016.6
20260508025019 69 250 2.0 4.0 0.00 0.00 0.00 68 1016.6
20260508024520 70 259 2.0 5.0 0.00 0.00 0.00 68 1016.5
20260508024019 70 249 2.0 5.0 0.00 0.00 0.00 68 1016.5
20260508023519 70 255 2.0 7.0 0.00 0.00 0.00 68 1016.5
20260508023016 70 284 3.0 8.0 0.00 0.00 0.00 67 1016.4
20260508022517 71 273 3.0 8.0 0.00 0.00 0.00 67 1016.4
20260508022016 71 279 4.0 7.0 0.00 0.00 0.00 67 1016.4
20260508021515 71 248 2.0 8.0 0.00 0.00 0.00 66 1016.4
20260508021015 71 240 3.0 12.0 0.00 0.00 0.00 66 1016.4
20260508020516 72 252 3.0 9.0 0.00 0.00 0.00 65 1016.4
20260508020115 72 256 3.0 9.0 0.00 0.00 0.00 65 1016.4
20260508015513 72 261 4.0 9.0 0.00 0.00 0.00 65 1016.4
20260508015013 73 273 5.0 12.0 0.00 0.00 0.00 63 1016.4
20260508014513 73 259 5.0 12.0 0.00 0.00 0.00 64 1016.4
20260508014013 73 247 4.0 11.0 0.00 0.00 0.00 63 1016.4
20260508013513 74 290 3.0 8.0 0.00 0.00 0.00 63 1016.5
20260508013012 74 290 5.0 10.0 0.00 0.00 0.00 61 1016.4
20260508012512 74 243 3.0 11.0 0.00 0.00 0.00 62 1016.4
20260508012012 74 247 3.0 13.0 0.00 0.00 0.00 60 1016.3
20260508011513 74 266 5.0 13.0 0.00 0.00 0.00 61 1016.3
20260508011012 75 247 5.0 13.0 0.00 0.00 0.00 60 1016.4
20260508010510 75 240 3.0 8.0 0.00 0.00 0.00 59 1016.3
20260508010009 75 277 4.0 8.0 0.00 0.00 0.00 59 1016.4
20260508005509 75 266 3.0 9.0 0.00 0.00 0.00 59 1016.5
20260508005011 75 275 4.0 9.0 0.00 0.00 0.00 58 1016.4
20260508004507 76 248 3.0 12.0 0.00 0.00 0.00 57 1016.5
20260508004007 76 271 4.0 12.0 0.00 0.00 0.00 58 1016.6
20260508003506 76 267 5.0 11.0 0.00 0.00 0.00 55 1016.6
20260508003006 76 296 4.0 10.0 0.00 0.00 0.00 56 1016.6
20260508002506 76 252 4.0 10.0 0.00 0.00 0.00 54 1016.6
20260508002008 76 244 4.0 12.0 0.00 0.00 0.00 56 1016.6
20260508001506 76 308 4.0 9.0 0.00 0.00 0.00 54 1016.6
20260508001004 77 289 5.0 9.0 0.00 0.00 0.00 55 1016.7
20260508000504 77 253 3.0 9.0 0.00 0.00 0.00 53 1016.6
20260508000003 77 266 3.0 9.0 0.00 0.00 0.00 54 1016.7
20260507235502 77 267 3.0 9.0 0.00 0.00 0.00 55 1016.8
20260507235002 77 270 4.0 10.0 0.00 0.00 0.00 56 1016.8
20260507234601 77 291 4.0 10.0 0.00 0.00 0.00 55 1016.8
20260507234100 76 244 4.0 10.0 0.00 0.00 0.00 55 1016.9
20260507233600 76 269 4.0 12.0 0.00 0.00 0.00 53 1016.9
20260507233106 77 248 6.0 12.0 0.00 0.00 0.00 52 1016.9
20260507232600 77 277 3.0 9.0 0.00 0.00 0.00 54 1017.0
20260507232058 77 259 2.0 7.0 0.00 0.00 0.00 53 1017.0
20260507231557 77 240 2.0 7.0 0.00 0.00 0.00 53 1017.0
20260507231057 77 223 3.0 8.0 0.00 0.00 0.00 54 1017.0
20260507230600 77 261 3.0 10.0 0.00 0.00 0.00 51 1017.0
20260507230055 77 261 3.0 10.0 0.00 0.00 0.00 54 1017.0
20260507225556 77 250 3.0 9.0 0.00 0.00 0.00 54 1017.2
20260507225054 77 259 4.0 9.0 0.00 0.00 0.00 54 1017.2